Showing default

PICO-01A003, 58326

Orbit data source: Space-Track

PICO-01A003, 58326 is a payload satellite owned by Apogeo Space (IT) in SSO that was launched on Sat, 11 Nov 2023 UTC via an FALCON 9 launch vehicle from the Air Force Western Test Range (AFWTR). Payload-class satellites include a variety of spacecraft equipped with specific instruments for various scientific and technological missions. These include communications satellites like Starlink; space stations such as the ISS; scientific satellites like the Hubble; Earth observation satellites from companies like Planet Labs, Umbra, and HawkEye 360; GPS; miniature CubeSats for education and research; and military/defense satellites.

Loading next visibility...
Identifier
58326, 2023-174BY
Orbit
SSO
Country
Flag of ITIT
Related business
Manufacturer
Apogeo Space
Mission
Operational Commercial Communications
Bus & Motor
CUBESAT 0.3U, Unknown motor
Mass
0.5 kg wet, 0.5 kg dry
Launch date (UTC)
2023-11-11 (2 years ago)
Launch vehicle
FALCON 9
Launch site
Air Force Western Test Range (AFWTR)
Object type
Payload
Rocket body
Debris
Shape & HBR
Box, 0.1 m
Radar Cross Section
0.008 m², Small (<0.1 m²)

Expand to show TLE details & history
Last TLE update: 14 hours ago

TLE from 14 hours ago
0 PICO-01A003
1 58326U 23174BY  25260.31528922  .00012668  00000-0  38961-3 0  9991
2 58326  97.4067 337.8926 0008527  70.8520 289.3645 15.33777289103419
Epoch: 2025-09-17T07:34Z
TLE epoch observation values (Epoch: 2025-09-17T07:34:00.988Z)
Latitude
-0.00003°
Longitude
-132.10451°
Altitude
465.733 km
Speed
7.635 km/s
True Right ascension
22h 31m 34s
True Declination
0° 00' 00"
Sunlit
Object was in full shadow at epoch
Visualization orbit readout
Latitude
Unknown
Longitude
Unknown
Altitude
Unknown
Speed
Unknown
Apparent Right ascension
Unknown
Apparent Declination
Unknown
Sunlit
N/A
Visualization observer readout
Local Sidereal Time
14:50:49
Azimuth
Unknown
Elevation
Unknown
Doppler factor
Unknown
Orbital elements
Apogee altitude
467.334 km
Perigee altitude
455.67 km
Semi-major axis
6,839.639 km
Eccentricity
0.00085
Inclination
97.4067°
RAAN
337.8926°
Arg. of periapsis
70.852°
True anomaly
289.27228°
Mean anomaly
289.3645°
Eccentric anomaly
289.31839°
Mean motion
3.83701 °/min
Orbital period
93.82 mins
BSTAR
0.00038961
Loading maneuver chart data...
Computing Atmospheric mass density...
Loading historical data...
Loading historical data...
Loading historical data...
Loading historical data...
Loading historical data...
Loading historical data...
Loading historical data...

Documentation

Showing up to 5 results
|